Wind_Speed
59 59 58 58 59 61 62 63 64 66 67 68 70 72 75 77 78 78 79 80 80 82 84 90 98 102 103 102 101 100 94 87 86 93 94 89 89 91 87 89 87 84 81 77 74
56 59 60 60 62 63 63 64 64 65 66 67 69 72 74 77 79 81 83 84 86 87 88 88 90 96 101 104 104 104 98 94 104 100 96 94 94 93 91 92 90 86 86 81 83
52 53 54 55 57 59 61 62 63 64 65 67 70 72 74 77 78 79 81 85 88 90 93 93 92 93 96 102 106 107 100 104 109 113 105 101 101 95 93 96 95 90 88 87 86
48 49 49 49 49 50 52 53 55 56 57 59 61 64 68 74 77 80 83 85 87 90 94 95 94 95 96 98 102 108 109 108 110 114 108 105 103 99 99 104 106 100 95 93 89
42 44 44 43 44 44 46 45 46 49 51 52 54 57 60 62 65 68 72 77 82 89 94 96 95 97 99 97 98 103 110 113 116 113 109 108 98 101 93 108 112 106 96 95 92
37 37 38 38 37 37 38 40 41 43 44 48 51 54 57 59 60 61 60 62 66 71 77 85 92 96 96 100 99 98 107 115 119 121 121 112 100 101 97 106 110 109 102 97 96
29 30 30 31 33 33 32 33 34 38 39 40 42 46 50 52 55 55 52 51 53 56 61 66 71 78 88 98 100 99 102 112 120 123 122 119 112 93 100 108 110 108 106 105 101
18 24 24 25 26 27 28 29 31 33 33 35 38 39 40 43 46 46 45 44 46 46 46 51 58 66 76 86 98 102 103 110 117 124 128 128 115 99 104 106 104 107 109 109 109
14 16 23 24 26 28 27 27 29 31 30 32 33 33 33 35 36 38 38 39 40 42 40 38 45 57 70 80 90 100 103 109 117 119 126 126 124 121 107 106 99 95 92 92 107
50 25 17 24 26 28 31 31 33 33 30 31 31 31 31 30 32 36 36 36 36 38 39 36 39 44 55 70 84 93 103 109 115 119 122 127 129 131 129 122 111 103 99 94 95
71 65 51 29 20 26 30 33 33 34 33 33 32 32 30 29 28 34 38 37 36 36 39 41 38 39 42 50 71 89 98 107 112 118 119 125 130 131 132 130 124 107 102 103 97
71 69 68 63 57 45 27 23 30 36 38 38 37 36 34 33 31 31 33 38 37 38 38 39 43 40 40 45 51 72 94 101 106 112 117 121 123 131 135 135 133 130 115 112 109
67 67 68 67 65 64 59 51 35 22 26 36 39 38 38 39 38 38 34 35 40 39 40 41 43 45 46 45 49 56 76 93 102 108 112 118 119 123 128 131 134 134 128 118 118
67 65 66 66 68 67 66 65 60 54 40 25 24 32 39 44 45 45 42 40 39 42 44 44 46 46 48 51 50 54 62 74 94 103 109 113 114 119 125 128 130 133 131 125 111
70 66 65 66 66 67 67 67 67 66 60 51 37 24 26 35 43 48 50 48 46 45 46 46 49 49 51 52 52 55 58 64 74 95 104 109 115 112 120 127 132 131 134 132 125
74 72 66 66 65 65 67 69 69 69 67 64 58 49 33 25 29 41 50 55 55 54 54 54 51 52 54 55 55 56 59 63 66 78 89 104 114 111 115 123 128 132 134 137 137
73 73 70 68 66 66 65 67 69 70 70 69 67 62 54 41 32 31 36 46 53 58 61 62 60 58 58 58 57 60 64 66 67 71 76 87 104 106 114 116 125 130 133 135 134
70 71 71 69 66 68 66 66 69 72 72 73 72 70 64 56 41 31 31 32 39 49 59 65 67 66 67 63 62 64 67 71 70 75 76 82 85 92 111 118 125 129 133 134 134
68 69 71 69 69 68 68 66 67 72 74 75 76 77 73 67 58 40 29 28 35 40 44 52 62 69 71 69 68 70 75 76 75 78 80 83 84 84 96 111 125 129 133 136 135
67 67 68 70 68 68 70 70 67 69 75 77 77 79 79 76 71 57 37 30 30 33 40 42 45 59 62 62 66 71 77 80 82 79 79 80 83 83 89 95 108 123 129 133 135
69 66 66 70 70 68 72 73 69 67 71 76 79 81 82 80 77 70 53 36 28 28 31 31 35 50 51 50 54 56 60 65 70 73 75 74 69 84 83 95 98 102 110 121 130
69 71 69 71 71 70 69 71 72 71 70 75 79 82 82 83 82 78 63 45 34 28 26 28 28 36 38 37 41 45 49 50 53 62 64 57 66 69 75 85 94 100 100 103 106
66 69 72 71 73 74 70 72 70 71 71 73 77 81 84 86 84 83 71 52 42 32 27 29 34 37 38 39 40 43 39 42 46 54 57 51 56 57 63 72 78 84 90 92 94
69 69 70 70 72 72 71 75 71 71 71 72 77 80 82 86 87 87 79 55 47 39 33 29 34 31 36 37 31 36 37 36 38 43 46 41 51 47 48 55 61 66 75 79 82
71 70 68 71 70 71 70 74 72 76 73 71 77 81 83 86 88 90 80 58 50 42 37 32 32 28 32 32 31 33 25 26 27 34 36 38 43 41 41 44 49 54 60 62 63
69 71 69 72 69 70 72 76 73 75 75 74 78 81 84 87 89 90 82 58 53 47 36 36 29 27 29 26 25 25 21 23 21 23 29 34 33 36 32 34 42 44 44 49 52
71 73 75 73 72 70 73 77 76 79 80 73 76 79 84 88 91 91 81 55 49 48 41 35 31 25 31 19 22 24 20 19 20 18 26 27 29 29 28 27 30 33 38 42 39
Wind_Direction
248 249 249 249 250 251 252 253 253 253 254 253 253 252 251 250 249 247 245 244 242 242 240 236 234 234 232 234 234 235 225 228 233 235 238 240 238 243 242 244 246 246 249 248 249
248 248 249 250 251 252 253 254 254 255 256 256 255 254 253 252 251 250 247 245 244 242 242 241 238 235 235 233 232 233 230 229 228 232 236 238 238 241 241 245 245 246 246 248 249
247 248 249 250 251 253 254 255 257 258 258 258 258 256 256 255 253 251 250 248 246 245 244 242 242 240 236 235 232 231 230 225 228 233 233 239 235 238 239 243 246 243 245 246 248
248 249 250 252 254 254 255 256 257 257 257 258 258 258 258 257 258 257 255 252 249 248 246 244 242 241 240 237 234 230 227 228 226 231 234 235 233 237 237 240 244 243 243 244 245
248 250 252 255 257 257 257 258 258 258 259 259 257 258 259 261 261 259 258 257 255 253 250 247 244 240 239 238 235 230 227 225 223 225 229 227 232 231 231 238 241 242 243 245 245
249 252 254 257 257 257 259 259 261 260 260 262 265 266 266 265 264 262 260 258 254 253 251 250 247 242 238 236 235 232 226 225 223 222 222 225 229 230 231 236 238 239 239 243 247
255 256 262 262 260 262 263 264 264 264 264 266 268 271 273 267 260 260 261 258 253 252 251 250 246 241 236 233 231 230 226 225 225 224 226 224 225 224 227 233 238 242 244 246 247
277 263 264 267 265 267 268 267 269 269 271 272 269 271 274 266 263 262 259 258 255 252 256 250 246 238 234 230 227 226 225 224 225 225 226 226 221 226 227 233 239 244 246 244 245
356 290 277 276 276 280 278 273 275 279 275 272 273 273 277 273 268 262 256 257 258 256 254 257 248 240 234 229 226 224 224 224 225 226 225 228 223 225 224 235 238 238 241 247 246
42 24 325 296 287 283 283 283 284 282 281 277 277 277 279 279 274 270 267 262 262 260 255 254 251 245 238 233 227 225 224 225 225 226 225 227 228 233 234 229 232 235 239 243 248
45 46 43 26 333 300 289 284 283 282 281 280 279 279 279 281 277 270 270 271 266 259 257 255 253 248 242 238 233 227 225 225 227 227 226 227 227 231 237 235 233 234 236 238 243
40 40 42 43 43 37 15 325 294 282 279 280 277 276 277 278 277 274 270 265 265 261 256 253 253 252 247 241 237 233 228 226 227 228 229 228 228 230 233 235 234 236 233 239 242
35 36 36 36 38 39 36 33 23 347 300 283 280 277 276 274 272 270 268 263 259 259 257 255 252 248 248 245 242 236 233 230 229 229 230 230 228 231 232 235 235 238 242 244 243
30 30 31 32 31 32 32 32 31 28 19 349 306 280 270 268 268 268 267 263 260 256 255 253 251 250 248 246 243 243 237 235 233 232 231 231 230 231 232 233 235 238 240 242 239
27 27 26 27 27 26 27 26 26 26 26 22 13 335 297 278 268 264 264 260 257 256 256 253 254 252 251 251 249 245 242 240 237 235 233 234 231 232 234 235 235 236 238 240 242
21 23 23 23 23 23 22 22 22 22 21 21 19 14 357 316 287 273 262 258 256 255 255 254 250 251 250 249 249 249 248 245 242 240 238 236 235 230 235 236 236 237 237 238 239
17 16 18 19 19 19 20 18 18 19 18 17 17 15 11 357 332 306 283 270 260 255 253 254 254 251 251 250 249 249 248 247 245 243 241 241 237 234 234 236 238 238 238 238 239
12 13 12 13 14 15 16 15 13 14 15 14 13 14 11 8 355 334 310 287 270 261 254 254 255 252 252 251 251 251 250 249 245 246 245 244 239 238 237 236 239 238 240 239 240
8 9 10 8 9 11 11 13 10 9 11 10 10 9 9 8 3 353 334 302 284 274 264 257 255 256 253 252 252 252 254 255 253 250 248 248 246 238 238 239 238 240 240 240 240
7 6 8 10 6 5 7 8 10 6 5 8 6 6 6 4 3 358 346 324 304 285 275 269 261 261 260 258 256 254 256 258 260 258 258 254 250 249 247 244 243 241 241 243 241
3 2 3 4 7 3 3 4 6 5 1 3 4 4 2 2 1 359 349 336 316 297 285 273 265 264 265 266 265 264 262 262 263 264 261 258 257 250 243 244 243 242 243 241 242
358 360 360 360 3 5 2 1 2 3 1 359 1 1 359 360 357 358 352 342 325 307 286 272 264 263 267 269 270 271 266 265 263 262 263 259 255 248 243 243 243 243 242 242 241
355 356 0 357 357 359 1 1 360 0 0 356 358 358 358 357 356 354 351 343 334 316 295 276 260 264 274 274 275 268 275 273 267 265 265 266 262 249 245 243 244 245 248 248 246
352 353 358 0 356 357 356 358 357 358 357 354 355 356 357 356 353 353 349 343 335 327 304 289 276 269 277 282 278 270 273 262 267 269 270 267 264 255 249 245 246 244 243 245 247
347 349 353 359 359 355 354 355 355 354 354 354 352 353 354 355 353 351 347 340 335 327 312 295 283 278 283 283 291 277 271 270 267 264 264 262 255 255 244 241 240 241 242 245 247
344 346 349 355 356 354 353 353 354 352 352 351 351 350 352 353 351 350 347 337 332 331 315 298 291 278 282 286 282 277 271 274 270 267 265 261 260 257 246 239 239 237 236 237 239
340 342 345 349 353 352 350 350 352 351 351 349 349 349 350 350 349 348 345 335 331 329 323 302 293 276 278 271 279 280 287 282 285 274 268 258 254 247 240 233 231 225 227 228 228
Height
10630 10633 10636 10639 10642 10644 10647 10650 10652 10654 10655 10658 10661 10662 10665 10668 10672 10676 10681 10686 10691 10694 10699 10706 10713 10722 10735 10747 10758 10772 10793 10805 10801 10794 10800 10817 10819 10820 10830 10836 10848 10857 10862 10868 10875
10616 10620 10623 10626 10629 10632 10634 10637 10639 10640 10642 10644 10645 10646 10648 10650 10654 10659 10663 10667 10672 10676 10679 10684 10692 10702 10713 10722 10734 10751 10778 10786 10775 10771 10793 10806 10803 10807 10817 10820 10830 10842 10847 10854 10861
10603 10607 10611 10615 10618 10621 10623 10625 10627 10628 10629 10629 10629 10631 10632 10634 10636 10641 10643 10648 10651 10655 10658 10664 10673 10681 10691 10700 10714 10730 10756 10757 10755 10758 10779 10789 10792 10794 10805 10804 10808 10824 10830 10838 10847
10593 10597 10601 10604 10607 10610 10612 10614 10615 10615 10615 10616 10615 10615 10616 10617 10621 10622 10625 10628 10631 10634 10637 10643 10653 10661 10670 10679 10689 10709 10726 10737 10740 10748 10764 10769 10770 10778 10791 10783 10782 10801 10814 10824 10834
10585 10589 10593 10596 10598 10600 10602 10603 10603 10603 10604 10604 10602 10602 10603 10603 10605 10604 10605 10607 10609 10612 10614 10621 10629 10638 10647 10657 10666 10682 10699 10712 10718 10726 10739 10748 10753 10762 10780 10764 10760 10778 10802 10807 10819
10580 10584 10587 10589 10591 10592 10594 10594 10594 10594 10594 10593 10592 10591 10591 10590 10588 10588 10590 10590 10590 10591 10593 10596 10603 10613 10623 10633 10641 10659 10674 10688 10696 10705 10715 10730 10740 10752 10763 10747 10740 10756 10780 10795 10806
10576 10580 10583 10585 10587 10587 10587 10587 10587 10586 10585 10584 10581 10579 10577 10574 10574 10577 10578 10575 10575 10576 10577 10578 10580 10586 10594 10606 10621 10636 10651 10664 10676 10687 10699 10709 10732 10750 10727 10726 10727 10743 10758 10779 10788
10574 10577 10580 10582 10582 10582 10581 10580 10578 10577 10576 10575 10572 10570 10566 10564 10564 10567 10566 10564 10563 10564 10565 10564 10564 10569 10573 10583 10595 10610 10626 10641 10652 10667 10676 10691 10720 10716 10716 10715 10731 10730 10738 10756 10766
10575 10576 10578 10578 10579 10578 10577 10575 10572 10570 10568 10566 10564 10561 10557 10555 10555 10554 10553 10553 10553 10554 10555 10553 10552 10553 10556 10566 10577 10593 10609 10620 10630 10645 10658 10672 10695 10692 10699 10709 10716 10714 10721 10728 10741
10581 10579 10578 10577 10576 10574 10572 10570 10566 10564 10562 10559 10556 10553 10550 10548 10547 10543 10544 10546 10545 10544 10545 10544 10543 10542 10546 10552 10564 10576 10589 10600 10610 10621 10639 10651 10669 10669 10676 10691 10697 10701 10699 10711 10716
10593 10588 10582 10577 10574 10570 10567 10564 10561 10557 10554 10552 10548 10545 10544 10542 10540 10537 10536 10536 10536 10535 10535 10533 10534 10536 10538 10541 10549 10558 10570 10582 10590 10601 10617 10630 10649 10657 10652 10669 10679 10685 10685 10691 10698
10604 10597 10590 10583 10577 10571 10565 10559 10554 10550 10546 10543 10539 10537 10535 10534 10531 10529 10528 10526 10525 10525 10525 10525 10525 10527 10530 10533 10535 10540 10549 10561 10573 10583 10598 10608 10630 10634 10638 10645 10657 10662 10671 10676 10680
10609 10602 10595 10588 10580 10573 10566 10559 10551 10544 10538 10533 10530 10529 10526 10523 10521 10518 10518 10516 10515 10515 10515 10515 10515 10516 10518 10521 10525 10527 10534 10544 10553 10562 10574 10587 10608 10610 10617 10624 10634 10642 10650 10653 10659
10613 10606 10599 10591 10583 10574 10567 10560 10552 10544 10535 10528 10521 10518 10515 10511 10508 10507 10507 10506 10505 10504 10504 10502 10504 10505 10506 10509 10514 10515 10521 10526 10534 10541 10552 10564 10585 10592 10594 10602 10609 10616 10621 10633 10639
10617 10608 10601 10592 10585 10576 10568 10560 10551 10543 10535 10527 10519 10511 10505 10500 10498 10496 10493 10493 10493 10493 10490 10493 10492 10494 10496 10498 10501 10504 10508 10511 10516 10522 10533 10539 10555 10571 10572 10575 10581 10590 10600 10611 10620
10621 10613 10604 10595 10587 10579 10570 10561 10551 10542 10533 10524 10515 10507 10499 10492 10487 10480 10477 10477 10477 10479 10476 10475 10479 10480 10482 10484 10489 10493 10493 10497 10502 10504 10514 10511 10528 10560 10549 10550 10557 10565 10577 10589 10602
10623 10615 10606 10597 10588 10578 10569 10562 10554 10543 10535 10526 10515 10504 10494 10484 10476 10470 10465 10461 10461 10463 10461 10461 10463 10466 10467 10470 10476 10476 10475 10480 10485 10487 10492 10492 10508 10530 10527 10522 10531 10542 10551 10562 10574
10625 10617 10607 10597 10588 10579 10569 10559 10550 10542 10533 10523 10514 10505 10494 10484 10472 10463 10454 10449 10445 10443 10443 10445 10444 10448 10448 10456 10459 10459 10458 10457 10468 10466 10472 10472 10489 10499 10500 10503 10499 10513 10521 10532 10544
10627 10617 10608 10598 10587 10576 10568 10558 10549 10538 10528 10517 10508 10498 10490 10479 10467 10457 10449 10440 10434 10430 10428 10428 10427 10425 10429 10438 10443 10443 10437 10439 10444 10447 10452 10454 10461 10478 10464 10473 10478 10482 10485 10498 10514
10630 10619 10609 10600 10589 10579 10569 10557 10545 10534 10523 10513 10503 10492 10482 10472 10462 10451 10442 10432 10425 10421 10417 10417 10418 10408 10409 10419 10423 10424 10422 10421 10420 10426 10430 10434 10435 10444 10445 10447 10449 10454 10460 10467 10482
10629 10620 10609 10599 10589 10577 10565 10554 10544 10534 10522 10511 10500 10488 10476 10465 10455 10445 10434 10425 10418 10411 10407 10406 10404 10394 10397 10403 10402 10404 10404 10405 10403 10402 10399 10404 10418 10395 10413 10408 10418 10423 10428 10441 10449
10625 10616 10605 10595 10585 10575 10565 10551 10541 10530 10520 10507 10495 10483 10472 10462 10447 10437 10427 10417 10409 10403 10399 10396 10394 10387 10386 10389 10388 10387 10386 10387 10386 10380 10374 10379 10373 10375 10381 10386 10389 10393 10403 10413 10424
10624 10614 10603 10592 10580 10569 10561 10552 10540 10527 10516 10505 10494 10482 10467 10455 10443 10428 10419 10408 10399 10394 10390 10386 10384 10380 10376 10376 10376 10372 10372 10368 10366 10359 10356 10362 10353 10355 10359 10362 10368 10378 10386 10394 10405
10621 10613 10602 10590 10579 10566 10554 10544 10535 10526 10514 10502 10492 10480 10467 10451 10435 10424 10410 10401 10392 10384 10378 10375 10369 10371 10366 10363 10362 10359 10360 10357 10350 10349 10346 10346 10334 10340 10348 10350 10355 10363 10363 10370 10380
10618 10609 10602 10592 10581 10570 10556 10544 10531 10519 10509 10499 10486 10472 10460 10447 10432 10416 10404 10392 10382 10375 10367 10364 10359 10359 10355 10351 10349 10345 10344 10342 10341 10337 10332 10329 10324 10327 10331 10337 10341 10345 10350 10360 10367
10614 10606 10596 10588 10576 10564 10554 10543 10529 10515 10504 10490 10478 10464 10452 10440 10426 10413 10398 10382 10371 10365 10358 10351 10350 10348 10345 10341 10339 10335 10337 10332 10329 10325 10320 10318 10317 10317 10324 10327 10331 10336 10342 10344 10352
10606 10597 10588 10581 10571 10559 10548 10536 10526 10513 10499 10490 10479 10463 10446 10431 10416 10403 10390 10375 10366 10355 10349 10342 10339 10338 10333 10336 10333 10330 10327 10324 10320 10317 10313 10311 10309 10310 10314 10320 10324 10328 10329 10333 10344